This demonstration page uses our WeatherBlox Daily Observations layout. Learn more.

39.92423, -83.80882

Hourly Observations for June 14, 2017

Temp ( °F °C ) Dew Point ( °F °C ) Humidity (%) Winds ( mph kmh ) Pressure ( in mb ) Visibility ( mi km ) Precip ( " mm )
12:08 am 00:08 Mostly Cloudy with Mist and Fog 72 22 72 22 100 100 S 6 9 29.99 1016 5 8.0467 0 0
12:58 am 00:58 Clear 69 20.8 69 20.8 100 100 S 6 9 29.98 1015 7 11.26538 0 0
1:58 am 01:58 Partly Cloudy 72 22.1 72 22.1 100 100 SSW 7 11 29.97 1015 7 11.26538 0 0
2:58 am 02:58 Cloudy 72 22.1 72 22.1 100 100 Calm 29.99 1016 10 16.0934 0 0
3:48 am 03:48 Mostly Cloudy 72 22 72 22 100 100 Calm 30.01 1016 7 11.26538 0 0
3:58 am 03:58 Cloudy 71 21.9 71 21.9 100 100 Calm 30.01 1016 7 11.26538 0 0
4:58 am 04:58 Mostly Cloudy 71 21.6 71 21.6 100 100 S 3 6 30 1016 7 11.26538 0 0
5:59 am 05:59 Mostly Cloudy with Mist and Fog 70 21.1 70 21.1 100 100 SSE 3 6 30 1016 5 8.0467 0 0
6:58 am 06:58 Mostly Cloudy with Mist and Fog 70 21.3 70 21.3 100 100 S 3 6 30.01 1016 5 8.0467 0 0
7:58 am 07:58 Mostly Cloudy 71 21.9 71 21.9 100 100 Calm 30.02 1017 10 16.0934 0 0
8:41 am 08:41 Cloudy with Nearby Thunderstorms 73 23 72 22 94 94 SSW 7 11 30.03 1017 10 16.0934 0 0
8:58 am 08:58 Cloudy with Nearby Thunderstorms 73 22.7 71 21.6 94 94 SSE 7 11 30.04 1017 10 16.0934 0 0.0254
9:11 am 09:11 Cloudy with Thunderstorms 73 23 70 21 89 89 ESE 6 9 30.04 1017 10 16.0934 0 0
9:40 am 09:40 Cloudy with Light Thunderstorms 72 22 72 22 100 100 W 8 13 30.07 1018 7 11.26538 0 0
9:45 am 09:45 Cloudy with Light Thunderstorms 72 22 72 22 100 100 SW 6 9 30.06 1018 7 11.26538 0 0
9:53 am 09:53 Cloudy with Thunderstorms 70 21 70 21 100 100 S 3 6 30.05 1018 5 8.0467 0 0
9:58 am 09:58 Cloudy with Thunderstorms 70 21.2 70 21.2 100 100 S 6 9 30.05 1018 5 8.0467 0.05 1.27
10:05 am 10:05 Cloudy with Light Thunderstorms 70 21 70 21 100 100 Calm 30.06 1018 6 9.65604 0 0
10:17 am 10:17 Cloudy with Light Thunderstorms 70 21 70 21 100 100 Calm 30.07 1018 5 8.0467 0 0
10:26 am 10:26 Cloudy with Light Thunderstorms 70 21 70 21 100 100 W 6 9 30.06 1018 5 8.0467 0 0
10:34 am 10:34 Cloudy with Light Thunderstorms 70 21 70 21 100 100 Calm 30.05 1018 5 8.0467 0 0
10:41 am 10:41 Cloudy with Light Thunderstorms 68 20 68 20 100 100 Calm 30.05 1018 5 8.0467 0 0
10:43 am 10:43 Cloudy with Light Thunderstorms 68 20 68 20 100 100 Calm 30.05 1018 5 8.0467 0 0
10:53 am 10:53 Cloudy with Light Thunderstorms 68 20 68 20 100 100 Calm 30.04 1017 7 11.26538 0 0
10:58 am 10:58 Cloudy with Light Thunderstorms 69 20.5 69 20.5 100 100 SSW 7 11 30.04 1017 7 11.26538 0.14 3.556
11:15 am 11:15 Cloudy with Light Thunderstorms 68 20 68 20 100 100 Calm 30.04 1017 6 9.65604 0 0
11:19 am 11:19 Cloudy with Light Thunderstorms 68 20 68 20 100 100 Calm 30.04 1017 7 11.26538 0 0
11:39 am 11:39 Cloudy with Light Thunderstorms 70 21 70 21 100 100 SSE 5 7 30.04 1017 7 11.26538 0 0
11:55 am 11:55 Mostly Cloudy with Nearby Thunderstorms 70 21 70 21 100 100 S 9 15 30.04 1017 7 11.26538 0 0
11:58 am 11:58 Cloudy with Light Rain 70 21 70 21 100 100 SSW 8 13 30.04 1017 8 12.87472 0.13 3.302
12:58 pm 12:58 Mostly Cloudy 74 23.5 73 22.9 96 96 SW 5 7 30.03 1017 10 16.0934 0 0.0254
1:15 pm 13:15 Cloudy with Nearby Thunderstorms 73 23 72 22 94 94 WSW 9 15 30.06 1018 10 16.0934 0 0
1:18 pm 13:18 Cloudy with Nearby Thunderstorms 73 23 72 22 94 94 W 9 15 30.05 1018 7 11.26538 0 0
1:25 pm 13:25 Cloudy with Nearby Thunderstorms 72 22 72 22 100 100 SW 7 11 30.05 1018 4 6.43736 0 0
1:34 pm 13:34 Cloudy with Nearby Thunderstorms 70 21 70 21 100 100 SSW 9 15 30.04 1017 5 8.0467 0 0
1:43 pm 13:43 Mostly Cloudy with Nearby Thunderstorms 70 21 70 21 100 100 W 7 11 30.04 1017 7 11.26538 0 0
1:58 pm 13:58 Cloudy with Nearby Thunderstorms 70 20.9 70 20.9 100 100 SW 8 13 30.06 1018 7 11.26538 0.06 1.524
2:11 pm 14:11 Cloudy with Light Thunderstorms 70 21 70 21 100 100 SW 10 17 30.06 1018 7 11.26538 0 0
2:39 pm 14:39 Cloudy with Light Rain 68 20 68 20 100 100 SSW 8 13 30.06 1018 7 11.26538 0 0
2:58 pm 14:58 Mostly Cloudy with Light Rain 68 20 68 20 100 100 S 7 11 30.05 1018 7 11.26538 0.1 2.54
3:58 pm 15:58 Mostly Cloudy 69 20.5 69 20.5 100 100 SE 5 7 29.98 1015 10 16.0934 0.05 1.27
4:58 pm 16:58 Mostly Cloudy 71 21.6 71 21.5 99 99 SW 5 7 29.97 1015 10 16.0934 0 0
5:58 pm 17:58 Cloudy 75 23.9 72 22.2 90 90 SSW 6 9 29.95 1014 10 16.0934 0 0
6:58 pm 18:58 Mostly Cloudy 77 24.8 71 21.8 83 83 S 8 13 29.93 1014 10 16.0934 0 0
7:58 pm 19:58 Mostly Cloudy 76 24.5 71 21.9 85 85 S 5 7 29.93 1014 10 16.0934 0 0
10:12 pm 22:12 Mostly Cloudy 73 23 73 23 100 100 W 12 19 30.01 1016 10 16.0934 0 0
10:35 pm 22:35 Cloudy with Light Rain 73 23 70 21 89 89 Calm 29.99 1016 10 16.0934 0 0
10:58 pm 22:58 Mostly Cloudy 72 22.3 71 21.7 96 96 SW 5 7 29.98 1015 10 16.0934 0 0.0254
11:58 pm 23:58 Mostly Cloudy 69 20.5 69 20.5 100 100 ESE 5 7 29.96 1015 10 16.0934 0 0

Powered by AerisWeather